| time (UTC) | temp F | wind direction | speed MPH | gust MPH | rain 1hr in | rain 24hr in | rain mn in | humidity % | barometer mb |
| 20260506090901 | 63 | 49 | 2.0 | 6.0 | 0.00 | 0.13 | 0.06 | 66 | 1001.8 |
| 20260506090400 | 63 | 25 | 2.0 | 5.0 | 0.00 | 0.13 | 0.06 | 67 | 1001.7 |
| 20260506085900 | 63 | 50 | 2.0 | 8.0 | 0.00 | 0.13 | 0.06 | 67 | 1001.7 |
| 20260506085400 | 63 | 144 | 8.0 | 8.0 | 0.00 | 0.13 | 0.06 | 67 | 1001.7 |
| 20260506084900 | 63 | 358 | 5.0 | 10.0 | 0.00 | 0.13 | 0.06 | 68 | 1001.6 |
| 20260506084359 | 63 | 25 | 3.0 | 6.0 | 0.00 | 0.13 | 0.06 | 68 | 1001.6 |
| 20260506083859 | 62 | 113 | 0.0 | 5.0 | 0.00 | 0.13 | 0.06 | 69 | 1001.5 |
| 20260506083359 | 62 | 25 | 2.0 | 8.0 | 0.00 | 0.13 | 0.06 | 68 | 1001.6 |
| 20260506082858 | 63 | 47 | 4.0 | 8.0 | 0.00 | 0.13 | 0.06 | 69 | 1001.5 |
| 20260506082358 | 62 | 347 | 3.0 | 8.0 | 0.00 | 0.13 | 0.06 | 68 | 1001.5 |
| 20260506081858 | 62 | 333 | 1.0 | 7.0 | 0.00 | 0.13 | 0.06 | 69 | 1001.4 |
| 20260506081358 | 63 | 119 | 1.0 | 5.0 | 0.00 | 0.13 | 0.06 | 71 | 1001.4 |
| 20260506080857 | 62 | 19 | 1.0 | 7.0 | 0.00 | 0.13 | 0.06 | 71 | 1001.4 |
| 20260506080357 | 62 | 26 | 2.0 | 4.0 | 0.00 | 0.13 | 0.06 | 73 | 1001.4 |
| 20260506073355 | 61 | 316 | 2.0 | 8.0 | 0.00 | 0.13 | 0.06 | 77 | 1001.4 |
| 20260506072855 | 60 | 39 | 2.0 | 7.0 | 0.00 | 0.13 | 0.06 | 78 | 1001.5 |
| 20260506072355 | 60 | 291 | 4.0 | 7.0 | 0.00 | 0.13 | 0.06 | 79 | 1001.5 |
| 20260506071854 | 61 | 28 | 0.0 | 8.0 | 0.00 | 0.13 | 0.06 | 79 | 1001.5 |
| 20260506071354 | 60 | 1 | 6.0 | 9.0 | 0.00 | 0.13 | 0.06 | 79 | 1001.5 |
| 20260506070854 | 60 | 22 | 2.0 | 6.0 | 0.00 | 0.13 | 0.06 | 81 | 1001.6 |
| 20260506070354 | 60 | 23 | 1.0 | 5.0 | 0.00 | 0.13 | 0.06 | 81 | 1001.5 |
| 20260506062351 | 60 | 32 | 4.0 | 5.0 | 0.00 | 0.13 | 0.06 | 84 | 1001.4 |
| 20260506061851 | 60 | 66 | 0.0 | 5.0 | 0.00 | 0.13 | 0.06 | 84 | 1001.4 |
| 20260506061351 | 60 | 4 | 3.0 | 6.0 | 0.00 | 0.13 | 0.06 | 84 | 1001.5 |
| 20260506060850 | 59 | 50 | 0.0 | 3.0 | 0.00 | 0.13 | 0.06 | 85 | 1001.4 |
| 20260506060350 | 59 | 284 | 0.0 | 5.0 | 0.00 | 0.13 | 0.06 | 85 | 1001.4 |
| 20260506051347 | 59 | 45 | 0.0 | 4.0 | 0.00 | 0.13 | 0.06 | 87 | 1001.4 |
| 20260506050847 | 59 | 28 | 1.0 | 3.0 | 0.00 | 0.13 | 0.06 | 87 | 1001.4 |
| 20260506050347 | 59 | 78 | 0.0 | 3.0 | 0.00 | 0.13 | 0.06 | 87 | 1001.4 |
| 20260506044846 | 59 | 57 | 0.0 | 3.0 | 0.00 | 0.13 | 0.06 | 87 | 1001.4 |
| 20260506044346 | 58 | 60 | 1.0 | 5.0 | 0.00 | 0.13 | 0.06 | 87 | 1001.5 |
| 20260506043845 | 59 | 5 | 0.0 | 2.0 | 0.00 | 0.13 | 0.06 | 87 | 1001.4 |
| 20260506043345 | 59 | 151 | 0.0 | 4.0 | 0.00 | 0.13 | 0.06 | 87 | 1001.5 |
| 20260506042845 | 59 | 358 | 0.0 | 4.0 | 0.00 | 0.13 | 0.06 | 86 | 1001.5 |
| 20260506042345 | 59 | 9 | 0.0 | 2.0 | 0.00 | 0.13 | 0.06 | 86 | 1001.5 |
| 20260506041844 | 59 | 18 | 0.0 | 0.0 | 0.00 | 0.13 | 0.06 | 86 | 1001.6 |
| 20260506041344 | 59 | 18 | 0.0 | 0.0 | 0.00 | 0.13 | 0.06 | 86 | 1001.5 |
| 20260506040844 | 59 | 18 | 0.0 | 0.0 | 0.00 | 0.13 | 0.06 | 86 | 1001.6 |
| 20260506040343 | 59 | 18 | 0.0 | 3.0 | 0.00 | 0.13 | 0.06 | 86 | 1001.6 |
| 20260506035843 | 59 | 14 | 0.0 | 0.0 | 0.00 | 0.13 | 0.06 | 86 | 1001.5 |
| 20260506035343 | 59 | 14 | 0.0 | 0.0 | 0.00 | 0.13 | 0.06 | 86 | 1001.5 |
| 20260506034843 | 59 | 14 | 0.0 | 3.0 | 0.00 | 0.13 | 0.06 | 86 | 1001.5 |
| 20260506034342 | 59 | 136 | 1.0 | 1.0 | 0.00 | 0.13 | 0.06 | 86 | 1001.6 |
| 20260506033842 | 59 | 225 | 0.0 | 1.0 | 0.00 | 0.13 | 0.06 | 86 | 1001.5 |
| 20260506033342 | 59 | 40 | 0.0 | 1.0 | 0.00 | 0.13 | 0.06 | 86 | 1001.6 |
| 20260506032841 | 59 | 116 | 0.0 | 1.0 | 0.00 | 0.13 | 0.06 | 86 | 1001.6 |
| 20260506032341 | 59 | 142 | 0.0 | 4.0 | 0.00 | 0.13 | 0.06 | 86 | 1001.6 |
| 20260506031841 | 59 | 154 | 0.0 | 0.0 | 0.00 | 0.13 | 0.06 | 86 | 1001.6 |
| 20260506031341 | 59 | 154 | 0.0 | 0.0 | 0.00 | 0.13 | 0.06 | 86 | 1001.6 |
| 20260506030840 | 59 | 154 | 0.0 | 0.0 | 0.00 | 0.13 | 0.06 | 86 | 1001.6 |
| 20260506030340 | 59 | 154 | 0.0 | 0.0 | 0.00 | 0.13 | 0.06 | 86 | 1001.6 |
| 20260506025840 | 59 | 154 | 0.0 | 0.0 | 0.00 | 0.13 | 0.06 | 86 | 1001.6 |
| 20260506025339 | 59 | 154 | 0.0 | 0.0 | 0.00 | 0.13 | 0.06 | 86 | 1001.5 |
| 20260506024839 | 59 | 154 | 0.0 | 0.0 | 0.00 | 0.13 | 0.06 | 86 | 1001.6 |
| 20260506024339 | 59 | 154 | 0.0 | 0.0 | 0.00 | 0.13 | 0.06 | 86 | 1001.6 |
| 20260506023839 | 59 | 154 | 0.0 | 1.0 | 0.00 | 0.13 | 0.06 | 86 | 1001.6 |
| 20260506023338 | 59 | 154 | 0.0 | 1.0 | 0.00 | 0.13 | 0.06 | 87 | 1001.6 |
| 20260506022838 | 59 | 11 | 0.0 | 2.0 | 0.00 | 0.13 | 0.06 | 87 | 1001.7 |
| 20260506022338 | 59 | 32 | 1.0 | 3.0 | 0.00 | 0.13 | 0.06 | 86 | 1001.7 |
| 20260506021837 | 59 | 37 | 0.0 | 5.0 | 0.00 | 0.13 | 0.06 | 86 | 1001.7 |
| 20260506021337 | 59 | 16 | 1.0 | 2.0 | 0.00 | 0.13 | 0.06 | 87 | 1001.7 |
| 20260506020837 | 59 | 33 | 0.0 | 0.0 | 0.00 | 0.13 | 0.06 | 87 | 1001.7 |
| 20260506020337 | 59 | 33 | 0.0 | 0.0 | 0.00 | 0.13 | 0.06 | 87 | 1001.7 |
| 20260506015836 | 59 | 33 | 0.0 | 0.0 | 0.00 | 0.13 | 0.06 | 87 | 1001.7 |
| 20260506015336 | 59 | 33 | 0.0 | 2.0 | 0.00 | 0.13 | 0.06 | 87 | 1001.8 |
| 20260506014836 | 59 | 2 | 0.0 | 0.0 | 0.00 | 0.13 | 0.06 | 87 | 1001.8 |
| 20260506014335 | 59 | 2 | 0.0 | 5.0 | 0.00 | 0.13 | 0.06 | 87 | 1001.8 |
| 20260506013835 | 59 | 98 | 2.0 | 6.0 | 0.00 | 0.13 | 0.06 | 87 | 1001.9 |
| 20260506013335 | 59 | 12 | 1.0 | 5.0 | 0.00 | 0.13 | 0.06 | 87 | 1001.9 |
| 20260506012835 | 59 | 16 | 3.0 | 5.0 | 0.00 | 0.13 | 0.06 | 87 | 1001.9 |
| 20260506012334 | 59 | 25 | 0.0 | 4.0 | 0.00 | 0.13 | 0.06 | 87 | 1001.9 |
| 20260506011834 | 59 | 53 | 1.0 | 6.0 | 0.00 | 0.13 | 0.06 | 87 | 1001.9 |
| 20260506011334 | 59 | 46 | 2.0 | 4.0 | 0.00 | 0.13 | 0.06 | 87 | 1001.8 |
| 20260506010833 | 59 | 18 | 0.0 | 4.0 | 0.00 | 0.13 | 0.06 | 87 | 1001.8 |
| 20260506010333 | 60 | 329 | 0.0 | 3.0 | 0.01 | 0.13 | 0.06 | 87 | 1001.8 |
| 20260506005833 | 60 | 28 | 2.0 | 3.0 | 0.01 | 0.13 | 0.06 | 87 | 1001.8 |
| 20260506005333 | 60 | 47 | 1.0 | 5.0 | 0.01 | 0.13 | 0.06 | 87 | 1001.9 |
| 20260506004832 | 60 | 5 | 0.0 | 5.0 | 0.01 | 0.13 | 0.06 | 87 | 1001.8 |
| 20260506004332 | 60 | 5 | 1.0 | 4.0 | 0.01 | 0.13 | 0.06 | 87 | 1001.9 |
| 20260506003832 | 60 | 144 | 3.0 | 6.0 | 0.02 | 0.13 | 0.06 | 87 | 1001.9 |
| 20260506003332 | 60 | 14 | 1.0 | 7.0 | 0.03 | 0.13 | 0.06 | 87 | 1002.0 |
| 20260506002831 | 60 | 43 | 0.0 | 5.0 | 0.05 | 0.13 | 0.06 | 87 | 1001.9 |
| 20260506002331 | 60 | 306 | 1.0 | 5.0 | 0.06 | 0.13 | 0.06 | 87 | 1001.9 |
| 20260506001831 | 61 | 351 | 0.0 | 3.0 | 0.06 | 0.13 | 0.06 | 87 | 1002.0 |
| 20260506001330 | 60 | 30 | 0.0 | 2.0 | 0.06 | 0.13 | 0.06 | 87 | 1002.0 |
| 20260506000830 | 61 | 37 | 0.0 | 5.0 | 0.06 | 0.13 | 0.06 | 86 | 1002.0 |
| 20260506000330 | 61 | 85 | 1.0 | 5.0 | 0.05 | 0.12 | 0.05 | 86 | 1002.0 |
| 20260505235830 | 61 | 12 | 0.0 | 4.0 | 0.05 | 0.12 | 0.05 | 86 | 1002.0 |
| 20260505235329 | 61 | 317 | 0.0 | 0.0 | 0.05 | 0.12 | 0.05 | 86 | 1002.1 |
| 20260505234829 | 61 | 317 | 0.0 | 1.0 | 0.05 | 0.12 | 0.05 | 86 | 1002.0 |
| 20260505234329 | 61 | 244 | 0.0 | 0.0 | 0.05 | 0.12 | 0.05 | 86 | 1002.1 |
| 20260505233828 | 61 | 244 | 0.0 | 4.0 | 0.04 | 0.11 | 0.04 | 85 | 1002.2 |
| 20260505233328 | 61 | 73 | 3.0 | 6.0 | 0.03 | 0.10 | 0.03 | 85 | 1002.2 |
| 20260505232828 | 61 | 36 | 1.0 | 4.0 | 0.01 | 0.08 | 0.01 | 85 | 1002.2 |
| 20260505232328 | 61 | 329 | 0.0 | 4.0 | 0.00 | 0.07 | 0.00 | 85 | 1002.2 |
| 20260505231827 | 61 | 32 | 0.0 | 4.0 | 0.00 | 0.07 | 0.00 | 85 | 1002.3 |
| 20260505231327 | 61 | 11 | 0.0 | 7.0 | 0.00 | 0.07 | 0.00 | 84 | 1002.3 |
| 20260505230827 | 61 | 40 | 0.0 | 3.0 | 0.00 | 0.07 | 0.00 | 84 | 1002.3 |
| 20260505230326 | 61 | 16 | 1.0 | 6.0 | 0.00 | 0.07 | 0.00 | 84 | 1002.3 |
| 20260505225826 | 62 | 12 | 1.0 | 2.0 | 0.00 | 0.07 | 0.00 | 84 | 1002.3 |
| 20260505225326 | 62 | 57 | 0.0 | 5.0 | 0.00 | 0.07 | 0.00 | 84 | 1002.3 |
| 20260505224826 | 62 | 35 | 0.0 | 5.0 | 0.00 | 0.07 | 0.00 | 83 | 1002.3 |
| 20260505224325 | 62 | 63 | 0.0 | 6.0 | 0.00 | 0.07 | 0.00 | 83 | 1002.4 |
| 20260505223825 | 62 | 32 | 1.0 | 1.0 | 0.00 | 0.07 | 0.00 | 83 | 1002.4 |
| 20260505223325 | 62 | 32 | 0.0 | 0.0 | 0.00 | 0.07 | 0.00 | 83 | 1002.4 |
| 20260505222824 | 62 | 32 | 0.0 | 0.0 | 0.00 | 0.07 | 0.00 | 83 | 1002.5 |
| 20260505222324 | 62 | 32 | 0.0 | 3.0 | 0.00 | 0.07 | 0.00 | 82 | 1002.5 |
| 20260505221824 | 62 | 351 | 0.0 | 0.0 | 0.00 | 0.07 | 0.00 | 82 | 1002.5 |
| 20260505221324 | 62 | 351 | 0.0 | 0.0 | 0.00 | 0.07 | 0.00 | 82 | 1002.6 |
| 20260505220823 | 62 | 351 | 0.0 | 0.0 | 0.00 | 0.07 | 0.00 | 81 | 1002.6 |
| 20260505220323 | 62 | 351 | 0.0 | 0.0 | 0.00 | 0.07 | 0.00 | 81 | 1002.6 |
| 20260505215823 | 62 | 351 | 0.0 | 0.0 | 0.00 | 0.07 | 0.00 | 81 | 1002.7 |
| 20260505215322 | 63 | 351 | 0.0 | 0.0 | 0.00 | 0.07 | 0.00 | 81 | 1002.6 |
| 20260505214822 | 62 | 351 | 0.0 | 0.0 | 0.00 | 0.07 | 0.00 | 81 | 1002.6 |
| 20260505214322 | 63 | 351 | 0.0 | 0.0 | 0.00 | 0.07 | 0.00 | 81 | 1002.7 |
| 20260505213822 | 62 | 351 | 0.0 | 0.0 | 0.00 | 0.07 | 0.00 | 81 | 1002.8 |
| 20260505213321 | 62 | 351 | 0.0 | 0.0 | 0.00 | 0.07 | 0.00 | 81 | 1002.9 |
| 20260505212821 | 63 | 351 | 0.0 | 0.0 | 0.00 | 0.07 | 0.07 | 81 | 1002.8 |
| 20260505212321 | 62 | 351 | 0.0 | 0.0 | 0.00 | 0.07 | 0.07 | 81 | 1002.8 |
| 20260505211820 | 63 | 351 | 0.0 | 0.0 | 0.00 | 0.07 | 0.07 | 81 | 1002.9 |
| 20260505211320 | 63 | 351 | 0.0 | 0.0 | 0.00 | 0.07 | 0.07 | 81 | 1003.0 |
| 20260505210820 | 62 | 351 | 0.0 | 0.0 | 0.00 | 0.07 | 0.07 | 81 | 1003.0 |
| 20260505210320 | 63 | 351 | 0.0 | 0.0 | 0.00 | 0.07 | 0.07 | 81 | 1003.0 |
| 20260505205819 | 62 | 351 | 0.0 | 0.0 | 0.00 | 0.07 | 0.07 | 81 | 1003.0 |
| 20260505205319 | 62 | 351 | 0.0 | 0.0 | 0.00 | 0.07 | 0.07 | 82 | 1003.0 |
| 20260505204819 | 62 | 351 | 0.0 | 0.0 | 0.00 | 0.07 | 0.07 | 81 | 1003.0 |
| 20260505204318 | 63 | 351 | 0.0 | 1.0 | 0.00 | 0.07 | 0.07 | 81 | 1002.9 |
| 20260505203818 | 63 | 82 | 0.0 | 0.0 | 0.00 | 0.07 | 0.07 | 81 | 1003.0 |
| 20260505203318 | 63 | 82 | 0.0 | 0.0 | 0.00 | 0.07 | 0.07 | 81 | 1003.0 |
| 20260505202818 | 63 | 82 | 0.0 | 0.0 | 0.00 | 0.07 | 0.07 | 81 | 1003.0 |
| 20260505202317 | 63 | 82 | 0.0 | 0.0 | 0.00 | 0.07 | 0.07 | 81 | 1003.0 |
| 20260505201817 | 63 | 82 | 0.0 | 0.0 | 0.00 | 0.07 | 0.07 | 81 | 1003.1 |
| 20260505201317 | 63 | 82 | 0.0 | 0.0 | 0.00 | 0.07 | 0.07 | 81 | 1003.0 |
| 20260505200817 | 63 | 82 | 0.0 | 0.0 | 0.00 | 0.07 | 0.07 | 81 | 1003.0 |
| 20260505200316 | 63 | 82 | 0.0 | 0.0 | 0.00 | 0.07 | 0.07 | 81 | 1003.0 |
| 20260505195816 | 63 | 82 | 0.0 | 0.0 | 0.00 | 0.07 | 0.07 | 81 | 1002.9 |
| 20260505195316 | 63 | 82 | 0.0 | 0.0 | 0.00 | 0.07 | 0.07 | 81 | 1002.9 |
| 20260505194815 | 63 | 82 | 0.0 | 0.0 | 0.00 | 0.07 | 0.07 | 81 | 1002.9 |
| 20260505194315 | 63 | 82 | 0.0 | 0.0 | 0.00 | 0.07 | 0.07 | 80 | 1002.9 |
| 20260505193815 | 63 | 82 | 0.0 | 0.0 | 0.00 | 0.07 | 0.07 | 81 | 1002.8 |
| 20260505193315 | 63 | 82 | 0.0 | 0.0 | 0.00 | 0.07 | 0.07 | 80 | 1002.8 |
| 20260505192814 | 63 | 82 | 0.0 | 0.0 | 0.00 | 0.07 | 0.07 | 80 | 1002.8 |
| 20260505192314 | 63 | 82 | 0.0 | 0.0 | 0.00 | 0.07 | 0.07 | 80 | 1002.8 |
| 20260505191814 | 64 | 82 | 0.0 | 0.0 | 0.00 | 0.07 | 0.07 | 80 | 1002.8 |
| 20260505191313 | 63 | 82 | 0.0 | 0.0 | 0.00 | 0.07 | 0.07 | 80 | 1002.8 |
| 20260505190813 | 63 | 82 | 0.0 | 0.0 | 0.00 | 0.07 | 0.07 | 80 | 1002.7 |
| 20260505190313 | 63 | 82 | 0.0 | 0.0 | 0.00 | 0.07 | 0.07 | 80 | 1002.7 |
| 20260505185813 | 64 | 82 | 0.0 | 0.0 | 0.00 | 0.07 | 0.07 | 80 | 1002.8 |
| 20260505185312 | 63 | 82 | 0.0 | 0.0 | 0.00 | 0.07 | 0.07 | 79 | 1002.7 |
| 20260505184812 | 64 | 82 | 0.0 | 0.0 | 0.00 | 0.07 | 0.07 | 79 | 1002.7 |
| 20260505184312 | 64 | 82 | 0.0 | 0.0 | 0.00 | 0.07 | 0.07 | 79 | 1002.7 |
| 20260505183811 | 64 | 82 | 0.0 | 0.0 | 0.00 | 0.07 | 0.07 | 79 | 1002.7 |
| 20260505183311 | 64 | 82 | 0.0 | 0.0 | 0.00 | 0.07 | 0.07 | 79 | 1002.7 |
| 20260505182811 | 64 | 82 | 0.0 | 0.0 | 0.00 | 0.07 | 0.07 | 79 | 1002.7 |
| 20260505182311 | 64 | 82 | 0.0 | 0.0 | 0.00 | 0.07 | 0.07 | 79 | 1002.7 |
| 20260505181810 | 64 | 82 | 0.0 | 0.0 | 0.00 | 0.07 | 0.07 | 79 | 1002.7 |
| 20260505181310 | 64 | 82 | 0.0 | 0.0 | 0.01 | 0.07 | 0.07 | 79 | 1002.7 |
| 20260505180810 | 64 | 82 | 0.0 | 0.0 | 0.01 | 0.07 | 0.07 | 78 | 1002.7 |
| 20260505180309 | 64 | 82 | 0.0 | 0.0 | 0.01 | 0.07 | 0.07 | 78 | 1002.7 |
| 20260505175809 | 64 | 82 | 0.0 | 0.0 | 0.01 | 0.07 | 0.07 | 78 | 1002.7 |
| 20260505175309 | 64 | 82 | 0.0 | 0.0 | 0.01 | 0.07 | 0.07 | 78 | 1002.7 |
| 20260505174809 | 64 | 82 | 0.0 | 0.0 | 0.02 | 0.07 | 0.07 | 78 | 1002.8 |
| 20260505174308 | 64 | 82 | 0.0 | 0.0 | 0.02 | 0.07 | 0.07 | 78 | 1002.8 |
| 20260505173808 | 64 | 82 | 0.0 | 0.0 | 0.02 | 0.07 | 0.07 | 78 | 1002.9 |
| 20260505173308 | 64 | 82 | 0.0 | 0.0 | 0.02 | 0.07 | 0.07 | 78 | 1002.9 |
| 20260505172807 | 64 | 82 | 0.0 | 0.0 | 0.02 | 0.07 | 0.07 | 78 | 1002.9 |
| 20260505172307 | 64 | 82 | 0.0 | 0.0 | 0.03 | 0.07 | 0.07 | 77 | 1002.9 |
| 20260505171807 | 64 | 82 | 0.0 | 0.0 | 0.03 | 0.07 | 0.07 | 77 | 1003.0 |
| 20260505171307 | 64 | 82 | 0.0 | 0.0 | 0.03 | 0.06 | 0.06 | 77 | 1003.0 |
| 20260505170806 | 64 | 82 | 0.0 | 0.0 | 0.03 | 0.06 | 0.06 | 77 | 1002.9 |
| 20260505170306 | 64 | 82 | 0.0 | 0.0 | 0.04 | 0.06 | 0.06 | 77 | 1003.0 |
| 20260505165806 | 64 | 82 | 0.0 | 0.0 | 0.04 | 0.06 | 0.06 | 77 | 1003.0 |
| 20260505165306 | 64 | 82 | 0.0 | 0.0 | 0.05 | 0.06 | 0.06 | 77 | 1003.0 |
| 20260505164805 | 64 | 82 | 0.0 | 2.0 | 0.04 | 0.05 | 0.05 | 77 | 1003.0 |
| 20260505164305 | 65 | 116 | 0.0 | 0.0 | 0.04 | 0.05 | 0.05 | 77 | 1003.0 |
| 20260505163805 | 64 | 116 | 0.0 | 4.0 | 0.04 | 0.05 | 0.05 | 77 | 1003.1 |
| 20260505163304 | 64 | 90 | 0.0 | 3.0 | 0.04 | 0.05 | 0.05 | 77 | 1003.1 |
| 20260505162804 | 65 | 106 | 0.0 | 2.0 | 0.05 | 0.05 | 0.05 | 77 | 1003.2 |
| 20260505162306 | 65 | 74 | 0.0 | 0.0 | 0.04 | 0.04 | 0.04 | 76 | 1003.2 |
| 20260505161804 | 65 | 74 | 0.0 | 4.0 | 0.04 | 0.04 | 0.04 | 76 | 1003.3 |
| 20260505161303 | 65 | 91 | 0.0 | 1.0 | 0.03 | 0.03 | 0.03 | 76 | 1003.3 |
| 20260505160803 | 65 | 8 | 0.0 | 4.0 | 0.03 | 0.03 | 0.03 | 75 | 1003.3 |
| 20260505160303 | 66 | 309 | 1.0 | 4.0 | 0.02 | 0.02 | 0.02 | 74 | 1003.3 |
| 20260505153301 | 67 | 49 | 2.0 | 3.0 | 0.01 | 0.01 | 0.01 | 70 | 1003.4 |
| 20260505152801 | 67 | 23 | 0.0 | 5.0 | 0.00 | 0.00 | 0.00 | 69 | 1003.3 |
| 20260505152300 | 67 | 30 | 0.0 | 3.0 | 0.00 | 0.00 | 0.00 | 69 | 1003.3 |
| 20260505151800 | 67 | 54 | 0.0 | 3.0 | 0.00 | 0.00 | 0.00 | 69 | 1003.2 |
| 20260505151300 | 67 | 94 | 0.0 | 5.0 | 0.00 | 0.00 | 0.00 | 68 | 1003.2 |
| 20260505150800 | 68 | 12 | 0.0 | 6.0 | 0.00 | 0.00 | 0.00 | 68 | 1003.2 |
| 20260505150259 | 68 | 142 | 1.0 | 3.0 | 0.00 | 0.00 | 0.00 | 69 | 1003.2 |
| 20260505140256 | 70 | 109 | 0.0 | 8.0 | 0.00 | 0.00 | 0.00 | 59 | 1003.2 |
| 20260505130252 | 73 | 122 | 0.0 | 2.0 | 0.00 | 0.00 | 0.00 | 48 | 1003.1 |
| 20260505124752 | 72 | 102 | 0.0 | 3.0 | 0.00 | 0.00 | 0.00 | 48 | 1003.2 |
| 20260505124251 | 73 | 136 | 0.0 | 0.0 | 0.00 | 0.00 | 0.00 | 48 | 1003.2 |
| 20260505123751 | 73 | 136 | 0.0 | 3.0 | 0.00 | 0.00 | 0.00 | 47 | 1003.3 |
| 20260505123251 | 73 | 329 | 0.0 | 1.0 | 0.00 | 0.00 | 0.00 | 46 | 1003.3 |
| 20260505122750 | 74 | 329 | 1.0 | 3.0 | 0.00 | 0.00 | 0.00 | 46 | 1003.3 |
| 20260505122250 | 74 | 14 | 0.0 | 2.0 | 0.00 | 0.00 | 0.00 | 45 | 1003.4 |
| 20260505121750 | 75 | 116 | 0.0 | 0.0 | 0.00 | 0.00 | 0.00 | 45 | 1003.4 |
| 20260505121250 | 75 | 116 | 0.0 | 3.0 | 0.00 | 0.00 | 0.00 | 44 | 1003.4 |
| 20260505120749 | 75 | 108 | 1.0 | 1.0 | 0.00 | 0.00 | 0.00 | 44 | 1003.4 |
| 20260505120249 | 75 | 120 | 0.0 | 3.0 | 0.00 | 0.00 | 0.00 | 44 | 1003.5 |
| 20260505115749 | 75 | 150 | 0.0 | 0.0 | 0.00 | 0.00 | 0.00 | 45 | 1003.5 |
| 20260505115248 | 75 | 150 | 0.0 | 0.0 | 0.00 | 0.00 | 0.00 | 46 | 1003.6 |
| 20260505114748 | 74 | 36 | 0.0 | 0.0 | 0.00 | 0.00 | 0.00 | 46 | 1003.6 |
| 20260505114248 | 74 | 36 | 0.0 | 0.0 | 0.00 | 0.00 | 0.00 | 46 | 1003.6 |
| 20260505113748 | 74 | 36 | 0.0 | 2.0 | 0.00 | 0.00 | 0.00 | 45 | 1003.7 |
| 20260505113247 | 74 | 99 | 0.0 | 5.0 | 0.00 | 0.00 | 0.00 | 45 | 1003.8 |
| 20260505112747 | 74 | 258 | 0.0 | 0.0 | 0.00 | 0.00 | 0.00 | 45 | 1003.8 |
| 20260505112247 | 75 | 258 | 0.0 | 0.0 | 0.00 | 0.00 | 0.00 | 46 | 1003.9 |
| 20260505111747 | 75 | 258 | 0.0 | 0.0 | 0.00 | 0.00 | 0.00 | 46 | 1004.0 |
| 20260505111246 | 75 | 267 | 0.0 | 1.0 | 0.00 | 0.00 | 0.00 | 47 | 1004.0 |
| 20260505110746 | 75 | 246 | 0.0 | 4.0 | 0.00 | 0.00 | 0.00 | 47 | 1004.0 |
| 20260505110246 | 74 | 194 | 1.0 | 3.0 | 0.00 | 0.00 | 0.00 | 48 | 1004.0 |
| 20260505101743 | 73 | 185 | 0.0 | 2.0 | 0.00 | 0.00 | 0.00 | 50 | 1004.4 |
| 20260505101243 | 72 | 232 | 0.0 | 0.0 | 0.00 | 0.00 | 0.00 | 51 | 1004.5 |
| 20260505100743 | 73 | 232 | 0.0 | 0.0 | 0.00 | 0.00 | 0.00 | 51 | 1004.5 |
| 20260505100242 | 72 | 230 | 0.0 | 0.0 | 0.00 | 0.00 | 0.00 | 51 | 1004.5 |
| 20260505095742 | 72 | 230 | 0.0 | 0.0 | 0.00 | 0.00 | 0.00 | 51 | 1004.5 |
| 20260505095242 | 72 | 230 | 0.0 | 0.0 | 0.00 | 0.00 | 0.00 | 52 | 1004.5 |
| 20260505094741 | 71 | 230 | 0.0 | 1.0 | 0.00 | 0.00 | 0.00 | 53 | 1004.6 |
| 20260505094241 | 71 | 216 | 0.0 | 2.0 | 0.00 | 0.00 | 0.00 | 54 | 1004.6 |
| 20260505093741 | 71 | 234 | 0.0 | 4.0 | 0.00 | 0.00 | 0.00 | 54 | 1004.5 |
| 20260505093241 | 71 | 250 | 0.0 | 3.0 | 0.00 | 0.00 | 0.00 | 55 | 1004.6 |
| 20260505092740 | 71 | 267 | 2.0 | 2.0 | 0.00 | 0.00 | 0.00 | 56 | 1004.6 |
| 20260505092240 | 71 | 137 | 0.0 | 0.0 | 0.00 | 0.00 | 0.00 | 56 | 1004.7 |
| 20260505091740 | 71 | 137 | 0.0 | 2.0 | 0.00 | 0.00 | 0.00 | 57 | 1004.7 |
| 20260505091239 | 70 | 53 | 0.0 | 3.0 | 0.00 | 0.00 | 0.00 | 57 | 1004.8 |